Location: La Brionne
(46.1728°N, 1.7849°E)
Time: 17:14:29
(UTC+00:00)

Cosmos 1544 Rocket - Pass Details

Date: 24 October 2021
Orbit: 603 x 632 km, 82.5° (Epoch: 27 November)

Event Time Altitude Azimuth Distance (km) Brightness Sun altitude
Rises 18:57:50 0° 219° (SW) 2,914 7.5 -22.6°
Reaches altitude 10° 19:00:23 10° 232° (SW) 2,011 6.8 -23.0°
Maximum altitude 19:04:06 25° 289° (WNW) 1,267 5.8 -23.7°
Drops below altitude 10° 19:07:51 10° 345° (NNW) 2,020 6.4 -24.3°
Sets 19:10:25 0° 359° (N) 2,929 7.1 -24.8°
